Weather in Hadera

Israel     32°26′06″N   34°55′01″E
temp.,
°C
wind,
m/s
gust,
m/s
humid.,
%
clouds,
%
prec.,
mm/h
press.,
hPa
HPBL,
m
19 april, mon
mon1900:00+26ene332582 0.0 101315
03:00+26e4431100 0.0 101247
06:00+25e4428100 0.0 101244
09:00+30e3528100 0.0 1012147
12:00+36sw3419100 0.0 10121011
15:00+36wsw2318100 0.0 1010394
18:00+32nne2227100 0.0 100914
21:00+29nne2222100 0.0 100911
20 april, tue
tue2000:00+29ese3320100 0.0 100916
03:00+25ese1130100 0.0 100911
06:00+24wsw2231100 0.0 100912
09:00+25wnw3351100 0.0 1012261
12:00+27w654666 0.0 1012573
15:00+22wnw666122 0.0 1013515
18:00+20nw566599 0.0 1014511
21:00+17nw25825 0.0 1015209
21 april, wed
wed2100:00+16w22840 0.0 101667
03:00+15w22825 0.0 101665
06:00+15wsw128416 0.0 101766
09:00+19wnw23615 0.0 1018677
12:00+22wnw544672 0.0 1018747
15:00+22nw6646100 0.0 1017697
18:00+19nnw5759100 0.0 1017479
21:00+16nnw3479100 0.0 1018128
22 april, thu
thu2200:00+15nw0282100 0.0 101960
03:00+14nw1285100 0.0 101861
06:00+14nnw1186100 0.0 101865
09:00+19nw3460100 0.0 1018562
12:00+22nw55451 0.0 1018726
15:00+23nw66470 0.0 1017628
18:00+20nnw56580 0.0 1017450
21:00+16nnw23890 0.0 101862
23 april, fri
fri2300:00+15nw12900 0.0 101852
03:00+14w028917 0.0 101861
06:00+13sse0189100 0.0 101735
09:00+20n225468 0.0 1017488
12:00+25nw44333 0.0 1016847
15:00+24nnw77380 0.0 1015529
18:00+20nnw58544 0.0 1014347
21:00+16n2381100 0.0 101559